Regional Weather Roundup
Issued by NWS

Home | Current Version | Previous Version | Graphics & Text | Print | Product List | Glossary On
Versions: 1 2 3 4 5 6 7 8 9 10 11 12 13 14 15 16 17 18 19 20 21 22 23 24 25 26 27 28 29 30 31 32 33 34 35 36 37 38 39 40 41 42 43 44 45 46 47 48 49 50
000
ASUS43 KOAX 260302
RWRNE

WEATHER ROUNDUP FOR NEBRASKA
NATIONAL WEATHER SERVICE OMAHA NE
1000 PM CDT MON MAY 25 2015

NOTES: SATELLITE DATA IS BEING USED TO AUGMENT CLOUD COVER ABOVE
       12000 FEET.
       "FAIR" INDICATES FEW OR NO CLOUDS BELOW 12,000 FEET WITH NO
       SIGNIFICANT WEATHER AND/OR OBSTRUCTIONS TO VISIBILITY.

  * THESE STATIONS DO NOT REPORT WEATHER SUCH AS RAIN...SNOW OR FOG.

NEZ001>004-019>022-054>056-260400-
NEBRASKA PANHANDLE

CITY           SKY/WX    TMP DP  RH WIND       PRES   REMARKS
SCOTTSBLUFF    MOCLDY    51  50  96 NW5       29.91R
ALLIANCE       PTCLDY    50  49  96 W7        29.89R
CHADRON        PTCLDY    55  52  89 N5        29.90R
SIDNEY         CLOUDY    48  46  93 NW7       29.92R
$$

NEZ057>060-069>072-079>082-260400-
SOUTHWEST NEBRASKA

CITY           SKY/WX    TMP DP  RH WIND       PRES   REMARKS
NORTH PLATTE   MOCLDY    57  50  77 N9        29.85R
IMPERIAL       MOCLDY    56  50  80 NW12      29.88R
MCCOOK         PTCLDY    59  50  72 W12       29.83R
$$

NEZ005>010-023>029-035>040-094-260400-
NORTH CENTRAL NEBRASKA

CITY           SKY/WX    TMP DP  RH WIND       PRES   REMARKS
VALENTINE      CLOUDY    58  54  86 N5        29.86R
AINSWORTH      PTCLDY    56  55  95 N6        29.85R
BROKEN BOW     MOCLDY    62  54  74 N9        29.80R
ORD            CLOUDY    63  57  81 N5        29.77R
$$

NEZ041-046>049-061>064-073>077-083>087-260400-
SOUTH CENTRAL NEBRASKA

CITY           SKY/WX    TMP DP  RH WIND       PRES   REMARKS
GRAND ISLAND   CLOUDY    63  57  81 SE8       29.77R
HASTINGS       CLOUDY    64  58  80 S5        29.77R
KEARNEY *      CLOUDY    66  52  59 W8        29.78R
$$

NEZ011>018-030>034-042>045-260400-
NORTHEAST NEBRASKA

CITY           SKY/WX    TMP DP  RH WIND       PRES   REMARKS
NORFOLK        CLOUDY    66  57  72 N8        29.76R
BLAIR          CLOUDY    66  57  72 S5        29.83R
COLUMBUS *     CLOUDY   N/A N/A N/A MISG        N/A
TEKAMAH        LGT RAIN  64  60  87 S22       29.76S
$$

NEZ050>053-065>068-078-088>093-260400-
SOUTHEAST NEBRASKA

CITY           SKY/WX    TMP DP  RH WIND       PRES   REMARKS
LINCOLN        CLOUDY    64  55  72 S13       29.80R
OMAHA EPPLEY   CLOUDY    66  60  81 S10       29.80R
FALLS CITY     LGT RAIN  61  59  93 SE10      29.82F
$$

NEZ044-045-051>053-067-260400-
OMAHA AREA

CITY           SKY/WX    TMP DP  RH WIND       PRES   REMARKS
OMAHA EPPLEY   CLOUDY    66  60  81 S10       29.80R
BLAIR          CLOUDY    66  57  72 S5        29.83R
OFFUTT AFB     CLOUDY    64  60  87 S7        29.80R
$$


USA.gov is the U.S. government's official web portal to all federal, state and local government web resources and services.